Volver al catálogo

ORBCOMM FM 33

ActivoComunicacionesLEO
NORAD 25983·PAYLOAD·🇺🇸 United States

Lanzado Dec 4, 1999 desde Cape Canaveral Space Force Station

Loading…

Próximos Pases (próximas 24 horas)

TLE

ActualizadoSource: Space-Track

Época: Sep 14, 2026, 14:19 UTC

1 25983U 99065D   26257.59721741  .00000580  00000-0  22245-3 0  9995
2 25983  45.0302 356.3870 0010097 195.0023 165.0528 14.41101500401595

Sigue ORBCOMM FM 33 en tiempo real con AllMySat

Download on the App Store